Weather History for O'Neill, NE

Change the Weather History Date:

Friday, August 23, 2013

  Actual Average Record
Temperature  
Mean Temperature 76 °F -  
Max Temperature 84 °F 86 °F 104 °F (2003)
Min Temperature 69 °F 60 °F 44 °F (1966)
Cooling Degree Days 12    
Growing Degree Days 26 (Base 50)    
Moisture  
Dew Point 67 °F    
Average Humidity 74    
Maximum Humidity 89    
Minimum Humidity 55    
Precipitation  
Precipitation 0.00 in - - ()
Sea Level Pressure  
Sea Level Pressure 30.01 in    
Wind  
Wind Speed 9 mph (SSE)    
Max Wind Speed 21 mph    
Max Gust Speed 26 mph    
Visibility 8 miles    
Events      
Averages and records for this station are not official NWS values.
T = Trace of Precipitation, MM = Missing Value Source: NWS Daily Summary

Daily Weather History Graph

Daily Weather History Graph

Search for Another Location

Airport:

Trip Planner

Search our weather history database for the weather conditions in past years. The results will help you decide how hot, cold, wet, or windy it might be!

Date:

Astronomy

Aug. 23, 2013 Rise Set
Actual Time 6:50 AM CDT 8:23 PM CDT
Civil Twilight 6:20 AM CDT 8:52 PM CDT
Nautical Twilight 5:45 AM CDT 9:28 PM CDT
Astronomical Twilight 5:06 AM CDT 10:06 PM CDT
Moon 9:37 PM CDT (8/23) 9:52 AM CDT (8/23)
Length of Visible Light 14h 31m
Length of Day
13h 32m
Waning Gibbous, 91% of the Moon is Illuminated
Aug 23
Waning Gibbous
Aug 28
Last Quarter
Sep 5
New
Sep 12
First Quarter
Sep 19
Full

Hourly Weather History & Observations

Time (CDT) Temp. Heat Index Dew Point Humidity Pressure Visibility Wind Dir Wind Speed Gust Speed Precip Events Conditions
12:15 AM 69.8 °F - 66.0 °F 88% 30.11 in 10.0 mi ESE 4.6 mph - N/A   Clear
12:35 AM 69.3 °F - 65.5 °F 88% 30.12 in 7.0 mi East 4.6 mph - N/A   Clear
12:55 AM 69.3 °F - 65.8 °F 89% 30.11 in 7.0 mi East 4.6 mph - N/A   Clear
1:15 AM 69.8 °F - 66.2 °F 88% 30.10 in 7.0 mi ESE 3.5 mph - N/A   Clear
1:35 AM 69.8 °F - 66.2 °F 88% 30.10 in 7.0 mi ESE 5.8 mph - N/A   Scattered Clouds
1:55 AM 70.7 °F - 66.6 °F 87% 30.10 in 7.0 mi ESE 5.8 mph - N/A   Scattered Clouds
2:15 AM 70.7 °F - 66.7 °F 87% 30.10 in 7.0 mi ESE 5.8 mph - N/A   Mostly Cloudy
2:35 AM 70.7 °F - 66.7 °F 87% 30.10 in 5.0 mi ESE 6.9 mph - N/A   Overcast
2:55 AM 70.2 °F - 66.6 °F 88% 30.10 in 5.0 mi ESE 5.8 mph - N/A   Mostly Cloudy
3:15 AM 69.8 °F - 66.4 °F 89% 30.09 in 4.0 mi SE 5.8 mph - N/A   Clear
3:35 AM 69.8 °F - 66.4 °F 89% 30.09 in 4.0 mi ESE 5.8 mph - N/A   Clear
3:55 AM 69.8 °F - 66.4 °F 89% 30.08 in 4.0 mi ESE 5.8 mph - N/A   Clear
4:15 AM 69.8 °F - 66.6 °F 89% 30.08 in 4.0 mi ESE 5.8 mph - N/A   Scattered Clouds
4:35 AM 69.8 °F - 66.2 °F 88% 30.07 in 5.0 mi ESE 8.1 mph - N/A   Scattered Clouds
4:55 AM 69.8 °F - 66.2 °F 88% 30.06 in 5.0 mi East 9.2 mph - N/A   Scattered Clouds
5:15 AM 69.6 °F - 66.0 °F 88% 30.05 in 5.0 mi ESE 10.4 mph - N/A   Clear
5:35 AM 69.8 °F - 65.8 °F 87% 30.05 in 7.0 mi ESE 10.4 mph - N/A   Clear
5:55 AM 69.8 °F - 65.8 °F 87% 30.04 in 5.0 mi SE 9.2 mph - N/A   Scattered Clouds
6:15 AM 69.8 °F - 65.7 °F 87% 30.04 in 5.0 mi SE 9.2 mph - N/A   Scattered Clouds
6:35 AM 70.0 °F - 66.0 °F 87% 30.04 in 7.0 mi SE 8.1 mph - N/A   Mostly Cloudy
6:55 AM 70.2 °F - 66.2 °F 87% 30.04 in 7.0 mi SE 9.2 mph - N/A   Overcast
7:15 AM 70.2 °F - 66.2 °F 87% 30.04 in 7.0 mi SE 9.2 mph - N/A   Overcast
7:35 AM 69.8 °F - 66.2 °F 88% 30.04 in 5.0 mi SE 8.1 mph - N/A   Overcast
7:55 AM 70.0 °F - 66.2 °F 88% 30.05 in 5.0 mi SE 5.8 mph - N/A   Overcast
8:15 AM 70.3 °F - 66.2 °F 87% 30.04 in 5.0 mi SSE 6.9 mph - N/A   Mostly Cloudy
8:35 AM 70.9 °F - 66.7 °F 87% 30.05 in 5.0 mi South 8.1 mph - N/A   Mostly Cloudy
8:55 AM 71.8 °F - 67.5 °F 86% 30.05 in 5.0 mi South 6.9 mph - N/A   Overcast
9:15 AM 72.5 °F - 67.6 °F 85% 30.05 in 7.0 mi South 6.9 mph - N/A   Mostly Cloudy
9:35 AM 73.2 °F - 67.5 °F 82% 30.04 in 10.0 mi South 8.1 mph - N/A   Unknown
9:55 AM 73.8 °F - 67.6 °F 81% 30.04 in 10.0 mi South 9.2 mph - N/A   Overcast
10:15 AM 74.8 °F - 68.2 °F 80% 30.04 in 10.0 mi South 9.2 mph - N/A   Overcast
10:35 AM 77.0 °F - 68.4 °F 75% 30.04 in 10.0 mi South 9.2 mph - N/A   Mostly Cloudy
10:55 AM 77.9 °F - 68.7 °F 73% 30.03 in 10.0 mi South 8.1 mph - N/A   Mostly Cloudy
11:15 AM 79.7 °F - 68.4 °F 68% 30.02 in 10.0 mi SSE 10.4 mph - N/A   Mostly Cloudy
11:35 AM 79.5 °F - 68.7 °F 69% 30.02 in 10.0 mi SSE 9.2 mph - N/A   Mostly Cloudy
11:55 AM 81.5 °F 84.6 °F 68.9 °F 65% 30.01 in 10.0 mi South 10.4 mph - N/A   Mostly Cloudy
12:15 PM 81.3 °F 84.3 °F 68.7 °F 65% 30.01 in 10.0 mi SSE 8.1 mph - N/A   Scattered Clouds
12:35 PM 82.4 °F 86.1 °F 69.6 °F 65% 30.00 in 10.0 mi SSE 9.2 mph - N/A   Clear
12:55 PM 83.5 °F 87.2 °F 69.1 °F 62% 30.00 in 10.0 mi SSE 15.0 mph - N/A   Clear
1:15 PM 84.9 °F 88.2 °F 68.0 °F 57% 30.00 in 10.0 mi SSE 15.0 mph 19.6 mph N/A   Clear
1:35 PM 83.7 °F 86.2 °F 66.9 °F 57% 29.99 in 10.0 mi SSE 15.0 mph 20.7 mph N/A   Clear
1:55 PM 83.3 °F 85.7 °F 66.6 °F 57% 29.99 in 10.0 mi South 16.1 mph 20.7 mph N/A   Clear
2:15 PM 83.5 °F 86.2 °F 67.1 °F 58% 29.99 in 10.0 mi South 16.1 mph 19.6 mph N/A   Clear
2:35 PM 81.9 °F 84.2 °F 66.9 °F 60% 29.99 in 10.0 mi South 15.0 mph 21.9 mph N/A   Clear
2:55 PM 82.6 °F 85.3 °F 67.3 °F 60% 29.98 in 10.0 mi SSE 17.3 mph 24.2 mph N/A   Clear
3:15 PM 83.5 °F 86.4 °F 67.8 °F 59% 29.98 in 10.0 mi SSE 20.7 mph 24.2 mph N/A   Clear
3:35 PM 82.8 °F 85.5 °F 67.8 °F 60% 29.98 in 10.0 mi South 17.3 mph - N/A   Clear
3:55 PM 82.0 °F 84.5 °F 66.7 °F 60% 29.97 in 10.0 mi South 15.0 mph 20.7 mph N/A   Clear
4:15 PM 83.1 °F 85.9 °F 67.3 °F 59% 29.97 in 10.0 mi SSE 17.3 mph 26.5 mph N/A   Clear
4:35 PM 83.7 °F 86.7 °F 68.0 °F 59% 29.97 in 10.0 mi SSE 13.8 mph - N/A   Clear
4:55 PM 84.2 °F 87.3 °F 68.2 °F 58% 29.97 in 10.0 mi SSE 18.4 mph 26.5 mph N/A   Clear
5:15 PM 84.4 °F 87.6 °F 68.0 °F 58% 29.96 in 10.0 mi South 13.8 mph 21.9 mph N/A   Clear
5:35 PM 84.2 °F 87.3 °F 68.2 °F 58% 29.96 in 10.0 mi South 15.0 mph 21.9 mph N/A   Scattered Clouds
5:55 PM 84.4 °F 88.2 °F 68.9 °F 60% 29.95 in 10.0 mi SSE 16.1 mph - N/A   Clear
6:15 PM 84.4 °F 86.8 °F 66.6 °F 55% 29.95 in 10.0 mi SSE 15.0 mph 21.9 mph N/A   Clear
6:35 PM 83.7 °F 86.2 °F 67.1 °F 57% 29.93 in 10.0 mi SSE 15.0 mph 19.6 mph N/A   Clear
6:55 PM 83.8 °F 86.7 °F 67.6 °F 58% 29.93 in 10.0 mi South 17.3 mph 21.9 mph N/A   Clear
7:15 PM 82.8 °F 85.8 °F 68.2 °F 61% 29.93 in 10.0 mi SSE 16.1 mph - N/A   Clear
7:35 PM 82.4 °F 85.4 °F 68.2 °F 62% 29.93 in 10.0 mi SSE 12.7 mph 20.7 mph N/A   Clear
7:55 PM 81.5 °F 84.2 °F 68.0 °F 63% 29.93 in 10.0 mi South 13.8 mph 25.3 mph N/A   Clear
8:15 PM 81.0 °F 83.8 °F 68.0 °F 65% 29.93 in 10.0 mi SSE 12.7 mph - N/A   Clear
8:35 PM 79.7 °F - 68.0 °F 67% 29.93 in 10.0 mi SSE 10.4 mph - N/A   Clear
8:55 PM 79.3 °F - 68.0 °F 68% 29.93 in 10.0 mi SSE 9.2 mph - N/A   Clear
9:15 PM 78.8 °F - 68.2 °F 70% 29.94 in 10.0 mi SE 8.1 mph - N/A   Clear
9:35 PM 78.3 °F - 68.5 °F 72% 29.95 in 10.0 mi SE 6.9 mph - N/A   Clear
9:55 PM 77.9 °F - 68.9 °F 74% 29.95 in 10.0 mi SE 9.2 mph - N/A   Clear
10:15 PM 77.9 °F - 68.9 °F 74% 29.96 in 10.0 mi SE 8.1 mph - N/A   Clear
10:35 PM 77.5 °F - 68.9 °F 75% 29.96 in 10.0 mi SE 8.1 mph - N/A   Clear
10:55 PM 77.0 °F - 68.5 °F 75% 29.95 in 10.0 mi SSE 10.4 mph - N/A   Clear
11:15 PM 77.0 °F - 68.4 °F 75% 29.95 in 10.0 mi SSE 12.7 mph 16.1 mph N/A   Clear
11:35 PM 76.6 °F - 68.2 °F 75% 29.95 in 10.0 mi SSE 10.4 mph - N/A   Clear
11:55 PM 76.3 °F - 68.2 °F 76% 29.95 in 10.0 mi SSE 10.4 mph - N/A   Clear